CW0069 Weather Reports


Display with metric or nautical units.
time (UTC)temp
F
wind
direction
speed
MPH
gust
MPH
rain 1hr
in
rain 24hr
in
rain mn
in
humidity
%
barometer
mb
20260508171904 75 93 3.0 9.0 0.00 0.00 0.00 48 1010.8
20260508171404 75 103 5.0 12.0 0.00 0.00 0.00 49 1010.9
20260508170903 75 113 5.0 8.0 0.00 0.00 0.00 50 1011.1
20260508170404 74 89 2.0 9.0 0.00 0.00 0.00 49 1011.3
20260508165904 74 122 4.0 9.0 0.00 0.00 0.00 50 1011.5
20260508165404 74 99 5.0 8.0 0.00 0.00 0.00 50 1011.7
20260508164904 74 111 6.0 10.0 0.00 0.00 0.00 50 1011.8
20260508164404 73 99 3.0 8.0 0.00 0.00 0.00 49 1011.8
20260508163904 73 102 3.0 9.0 0.00 0.00 0.00 50 1011.9
20260508163404 73 117 6.0 10.0 0.00 0.00 0.00 50 1012.0
20260508162904 73 118 6.0 12.0 0.00 0.00 0.00 50 1012.1
20260508162404 73 109 5.0 12.0 0.00 0.00 0.00 51 1012.2
20260508161904 73 168 6.0 12.0 0.00 0.00 0.00 50 1012.3
20260508160904 72 130 5.0 10.0 0.00 0.00 0.00 51 1012.2
20260508160404 71 134 4.0 9.0 0.00 0.00 0.00 52 1012.3
20260508153403 71 150 6.0 9.0 0.00 0.00 0.00 51 1012.8
20260508152904 71 157 6.0 10.0 0.00 0.00 0.00 51 1012.8
20260508152404 71 140 5.0 9.0 0.00 0.00 0.00 51 1012.8
20260508151904 71 145 3.0 10.0 0.00 0.00 0.00 51 1012.8
20260508151404 71 158 6.0 12.0 0.00 0.00 0.00 50 1012.8
20260508150904 71 143 4.0 8.0 0.00 0.00 0.00 51 1012.8
20260508150404 70 143 5.0 10.0 0.00 0.00 0.00 52 1012.8
20260508145905 70 121 5.0 9.0 0.00 0.00 0.00 51 1012.8
20260508145403 70 129 4.0 9.0 0.00 0.00 0.00 51 1012.7
20260508144904 70 135 6.0 9.0 0.00 0.00 0.00 51 1012.6
20260508144404 70 137 3.0 9.0 0.00 0.00 0.00 51 1012.5
20260508142904 69 108 2.0 12.0 0.00 0.00 0.00 52 1012.7
20260508141904 68 108 5.0 10.0 0.00 0.00 0.00 54 1012.9
20260508140904 67 121 6.0 10.0 0.00 0.00 0.00 55 1013.0
20260508140404 67 105 4.0 10.0 0.00 0.00 0.00 54 1013.1
20260508135904 66 130 5.0 9.0 0.00 0.00 0.00 56 1013.2
20260508135404 66 114 6.0 12.0 0.00 0.00 0.00 57 1013.0
20260508134904 65 101 6.0 10.0 0.00 0.00 0.00 57 1013.0
20260508133904 64 110 4.0 10.0 0.00 0.00 0.00 58 1013.1
20260508133404 64 102 5.0 8.0 0.00 0.00 0.00 59 1013.0
20260508132904 63 103 3.0 6.0 0.00 0.00 0.00 60 1013.0
20260508132404 63 90 4.0 8.0 0.00 0.00 0.00 62 1013.1
20260508131904 62 125 3.0 6.0 0.00 0.00 0.00 62 1013.2
20260508131404 62 76 2.0 3.0 0.00 0.00 0.00 64 1013.3
20260508130904 61 63 3.0 5.0 0.00 0.00 0.00 65 1013.4
20260508130403 61 69 2.0 3.0 0.00 0.00 0.00 65 1013.4
20260508125904 60 67 1.0 3.0 0.00 0.00 0.00 65 1013.4
20260508125404 60 67 2.0 3.0 0.00 0.00 0.00 65 1013.4
20260508124904 60 71 1.0 3.0 0.00 0.00 0.00 65 1013.2
20260508124404 60 71 1.0 3.0 0.00 0.00 0.00 65 1013.2
20260508123903 60 72 2.0 3.0 0.00 0.00 0.00 65 1013.1
20260508123404 60 76 2.0 3.0 0.00 0.00 0.00 65 1012.9
20260508122904 60 76 2.0 3.0 0.00 0.00 0.00 66 1013.0
20260508122404 60 76 1.0 2.0 0.00 0.00 0.00 66 1013.1
20260508121903 60 76 0.0 3.0 0.00 0.00 0.00 66 1013.3
20260508121404 60 76 2.0 3.0 0.00 0.00 0.00 66 1013.3
20260508120903 60 76 1.0 2.0 0.00 0.00 0.00 66 1013.3
20260508120404 60 76 1.0 3.0 0.00 0.00 0.00 66 1013.2
20260508115904 60 76 1.0 3.0 0.00 0.00 0.00 66 1013.3
20260508115404 60 76 0.0 1.0 0.00 0.00 0.00 66 1013.4
20260508114904 60 76 1.0 3.0 0.00 0.00 0.00 65 1013.4
20260508114404 60 76 1.0 2.0 0.00 0.00 0.00 66 1013.4
20260508113904 59 76 1.0 3.0 0.00 0.00 0.00 66 1013.5
20260508112904 59 319 0.0 0.0 0.00 0.00 0.00 65 1013.8
20260508112404 59 319 1.0 3.0 0.00 0.00 0.00 65 1013.9
20260508111904 59 319 2.0 5.0 0.00 0.00 0.00 65 1014.1
20260508110404 59 230 1.0 2.0 0.00 0.00 0.00 65 1013.5
20260508105403 59 227 3.0 3.0 0.00 0.00 0.00 65 1013.2
20260508104904 59 120 0.0 2.0 0.00 0.00 0.00 65 1012.8
20260508104404 59 120 0.0 3.0 0.00 0.00 0.00 65 1012.6
20260508103904 59 119 2.0 3.0 0.00 0.00 0.00 65 1012.3
20260508103404 59 122 3.0 3.0 0.00 0.00 0.00 65 1012.2
20260508102903 59 121 2.0 3.0 0.00 0.00 0.00 65 1012.3
20260508102404 59 121 2.0 3.0 0.00 0.00 0.00 65 1012.3
20260508101904 59 121 1.0 2.0 0.00 0.00 0.00 65 1012.3
20260508101404 59 121 1.0 2.0 0.00 0.00 0.00 65 1012.6
20260508100904 59 121 1.0 3.0 0.00 0.00 0.00 65 1012.5
20260508095904 60 121 1.0 2.0 0.00 0.00 0.00 65 1012.5
20260508094904 60 121 0.0 3.0 0.00 0.00 0.00 65 1012.5
20260508094403 60 121 1.0 3.0 0.00 0.00 0.00 65 1012.3
20260508093904 60 121 0.0 2.0 0.00 0.00 0.00 65 1012.6
20260508093404 60 121 2.0 3.0 0.00 0.00 0.00 65 1012.5
20260508092904 60 121 1.0 2.0 0.00 0.00 0.00 65 1012.5
20260508092403 60 121 2.0 3.0 0.00 0.00 0.00 65 1012.5
20260508091903 60 121 1.0 5.0 0.00 0.00 0.00 65 1012.6
20260508091404 60 133 2.0 5.0 0.00 0.00 0.00 65 1012.4
20260508090904 60 113 3.0 6.0 0.00 0.00 0.00 65 1012.4
20260508090404 60 97 2.0 6.0 0.00 0.00 0.00 65 1012.5
20260508085904 60 156 2.0 3.0 0.00 0.00 0.00 65 1012.7
20260508085403 60 157 2.0 3.0 0.00 0.00 0.00 65 1013.1
20260508084404 60 192 0.0 3.0 0.00 0.00 0.00 64 1013.6
20260508083904 60 192 1.0 2.0 0.00 0.00 0.00 64 1013.6
20260508083403 60 192 0.0 0.0 0.00 0.00 0.00 64 1013.6
20260508082903 60 192 0.0 0.0 0.00 0.00 0.00 64 1013.9
20260508082404 60 192 0.0 0.0 0.00 0.00 0.00 64 1013.9
20260508080904 60 192 2.0 3.0 0.00 0.00 0.00 64 1014.0
20260508080404 60 155 1.0 3.0 0.00 0.00 0.00 63 1014.0
20260508075904 60 122 0.0 0.0 0.00 0.00 0.00 63 1013.6
20260508075404 60 122 0.0 0.0 0.00 0.00 0.00 63 1013.5
20260508074904 60 122 0.0 0.0 0.00 0.00 0.00 63 1013.6
20260508073904 60 122 0.0 0.0 0.00 0.00 0.00 63 1013.4
20260508072904 60 122 0.0 0.0 0.00 0.00 0.00 63 1013.4
20260508072404 60 122 0.0 0.0 0.00 0.00 0.00 63 1013.3
20260508071904 60 122 0.0 0.0 0.00 0.00 0.00 63 1013.4
20260508070903 60 122 1.0 2.0 0.00 0.00 0.00 62 1013.5
20260508070404 60 122 1.0 2.0 0.00 0.00 0.00 63 1013.7
20260508065404 60 122 0.0 2.0 0.00 0.00 0.00 62 1013.8
20260508064404 60 122 0.0 0.0 0.00 0.00 0.00 61 1014.2
20260508063904 60 122 0.0 0.0 0.00 0.00 0.00 61 1014.3
20260508063404 60 122 0.0 0.0 0.00 0.00 0.00 61 1014.3
20260508062903 60 122 0.0 0.0 0.00 0.00 0.00 61 1014.3
20260508062403 60 122 1.0 3.0 0.00 0.00 0.00 61 1014.1
20260508061904 60 122 1.0 2.0 0.00 0.00 0.00 62 1014.2
20260508061404 61 122 0.0 0.0 0.00 0.00 0.00 62 1014.3
20260508060904 61 122 0.0 0.0 0.00 0.00 0.00 61 1014.2
20260508060404 61 122 0.0 1.0 0.00 0.00 0.00 61 1014.3
20260508055903 61 122 1.0 2.0 0.00 0.00 0.00 61 1014.1
20260508055403 61 122 0.0 0.0 0.00 0.00 0.00 61 1014.2
20260508054904 61 122 0.0 0.0 0.00 0.00 0.00 61 1014.3
20260508054404 61 122 0.0 0.0 0.00 0.00 0.00 61 1014.2
20260508053903 61 122 0.0 2.0 0.00 0.00 0.00 62 1014.1
20260508053404 61 122 1.0 2.0 0.00 0.00 0.00 62 1014.2
20260508052905 61 122 0.0 2.0 0.00 0.00 0.00 61 1014.1
20260508052404 61 122 1.0 3.0 0.00 0.00 0.00 62 1014.2
20260508051904 61 122 1.0 2.0 0.00 0.00 0.00 60 1014.2
20260508051403 61 122 1.0 3.0 0.00 0.00 0.00 61 1014.3
20260508050904 61 122 0.0 2.0 0.00 0.00 0.00 61 1014.3
20260508050404 61 122 1.0 2.0 0.00 0.00 0.00 61 1014.1
20260508045903 61 122 1.0 2.0 0.00 0.00 0.00 60 1014.3
20260508045404 61 122 1.0 1.0 0.00 0.00 0.00 59 1014.4
20260508044904 62 122 0.0 2.0 0.00 0.00 0.00 60 1014.4
20260508043903 62 122 2.0 3.0 0.00 0.00 0.00 60 1014.3
20260508043404 62 122 2.0 3.0 0.00 0.00 0.00 59 1014.3
20260508042904 62 122 0.0 0.0 0.00 0.00 0.00 60 1014.3
20260508042404 62 122 0.0 0.0 0.00 0.00 0.00 59 1014.2
20260508041903 62 122 0.0 0.0 0.00 0.00 0.00 59 1014.1
20260508041403 62 122 0.0 0.0 0.00 0.00 0.00 59 1014.1
20260508040904 62 122 0.0 0.0 0.00 0.00 0.00 58 1014.0
20260508040404 62 122 0.0 0.0 0.00 0.00 0.00 58 1014.0
20260508035904 62 122 0.0 0.0 0.00 0.00 0.00 58 1013.9
20260508035403 62 122 0.0 0.0 0.00 0.00 0.00 58 1014.0
20260508034904 62 122 0.0 0.0 0.00 0.00 0.00 58 1014.0
20260508034403 62 122 0.0 0.0 0.00 0.00 0.00 58 1014.0
20260508033904 62 122 0.0 0.0 0.00 0.00 0.00 59 1013.8
20260508033403 62 122 0.0 0.0 0.00 0.00 0.00 58 1013.8
20260508031904 63 122 0.0 0.0 0.00 0.00 0.00 58 1014.0
20260508030903 63 122 0.0 0.0 0.00 0.00 0.00 56 1013.9
20260508030404 63 122 0.0 0.0 0.00 0.00 0.00 57 1013.8
20260508025904 63 122 0.0 0.0 0.00 0.00 0.00 57 1013.8
20260508025404 63 122 0.0 0.0 0.00 0.00 0.00 56 1013.9
20260508024904 63 122 0.0 0.0 0.00 0.00 0.00 56 1013.7
20260508024404 63 122 0.0 0.0 0.00 0.00 0.00 55 1013.8
20260508023903 63 122 0.0 0.0 0.00 0.00 0.00 55 1013.9
20260508023404 64 122 0.0 0.0 0.00 0.00 0.00 55 1013.7
20260508022904 64 122 0.0 0.0 0.00 0.00 0.00 55 1013.8
20260508022404 64 122 0.0 0.0 0.00 0.00 0.00 55 1013.8
20260508021403 64 122 0.0 0.0 0.00 0.00 0.00 55 1013.7
20260508020903 64 122 0.0 1.0 0.00 0.00 0.00 55 1013.4
20260508020403 65 122 0.0 0.0 0.00 0.00 0.00 55 1013.4
20260508015904 65 122 0.0 0.0 0.00 0.00 0.00 55 1013.3
20260508014904 65 122 0.0 0.0 0.00 0.00 0.00 54 1013.4
20260508014404 65 122 0.0 0.0 0.00 0.00 0.00 53 1013.6
20260508013903 65 122 0.0 0.0 0.00 0.00 0.00 53 1013.7
20260508013403 66 122 0.0 0.0 0.00 0.00 0.00 53 1013.5
20260508012903 66 122 0.0 0.0 0.00 0.00 0.00 52 1013.5
20260508010905 67 122 1.0 2.0 0.00 0.00 0.00 52 1013.3
20260508010405 67 122 1.0 2.0 0.00 0.00 0.00 51 1013.3
20260508005405 67 122 0.0 1.0 0.00 0.00 0.00 51 1013.4
20260508004905 67 122 1.0 2.0 0.00 0.00 0.00 51 1013.4
20260508004405 67 122 2.0 3.0 0.00 0.00 0.00 51 1013.4
20260508003405 68 122 2.0 3.0 0.00 0.00 0.00 51 1013.5
20260508002905 68 123 1.0 3.0 0.00 0.00 0.00 51 1013.7
20260508002405 68 123 2.0 3.0 0.00 0.00 0.00 50 1013.7
20260508001405 68 120 1.0 3.0 0.00 0.00 0.00 50 1013.4
20260508000905 68 120 2.0 3.0 0.00 0.00 0.00 50 1013.6
20260508000405 68 120 2.0 3.0 0.00 0.00 0.00 50 1013.6
20260507235905 68 119 2.0 3.0 0.00 0.00 0.00 50 1013.6
20260507234905 68 119 2.0 3.0 0.00 0.00 0.00 50 1013.5
20260507234405 68 123 2.0 7.0 0.00 0.00 0.00 50 1013.6
20260507233905 69 111 3.0 8.0 0.00 0.00 0.00 50 1013.7
20260507233405 69 122 3.0 6.0 0.00 0.00 0.00 50 1013.6
20260507232906 69 115 2.0 6.0 0.00 0.00 0.00 50 1013.6
20260507232405 69 122 2.0 6.0 0.00 0.00 0.00 50 1013.7
20260507231405 69 130 2.0 8.0 0.00 0.00 0.00 49 1013.8
20260507230905 69 112 4.0 8.0 0.00 0.00 0.00 49 1013.8
20260507225905 70 113 3.0 8.0 0.00 0.00 0.00 49 1013.8
20260507225405 70 129 3.0 7.0 0.00 0.00 0.00 49 1013.9
20260507224404 70 131 3.0 8.0 0.00 0.00 0.00 48 1013.9
20260507223905 70 105 2.0 6.0 0.00 0.00 0.00 48 1013.8
20260507223404 70 136 3.0 7.0 0.00 0.00 0.00 48 1013.9
20260507222905 71 134 3.0 5.0 0.00 0.00 0.00 48 1014.0
20260507222405 71 124 3.0 8.0 0.00 0.00 0.00 48 1013.8
20260507221905 71 118 3.0 6.0 0.00 0.00 0.00 48 1013.8
20260507221405 71 132 6.0 9.0 0.00 0.00 0.00 48 1014.0
20260507220904 71 112 3.0 8.0 0.00 0.00 0.00 47 1014.1
20260507220405 71 108 3.0 7.0 0.00 0.00 0.00 47 1014.2
20260507215905 71 126 3.0 7.0 0.00 0.00 0.00 48 1014.1
20260507215405 71 102 3.0 6.0 0.00 0.00 0.00 47 1014.1
20260507214905 71 115 3.0 7.0 0.00 0.00 0.00 47 1014.1
20260507214405 72 121 1.0 6.0 0.00 0.00 0.00 46 1014.2
20260507213905 72 121 3.0 7.0 0.00 0.00 0.00 47 1014.3
20260507212905 72 125 3.0 7.0 0.00 0.00 0.00 45 1014.4
20260507212404 72 124 2.0 6.0 0.00 0.00 0.00 46 1014.4
20260507211905 72 142 3.0 7.0 0.00 0.01 0.00 46 1014.5
20260507211405 73 112 3.0 7.0 0.00 0.05 0.00 46 1014.4
20260507210905 73 91 3.0 8.0 0.00 0.08 0.00 46 1014.4
20260507210405 73 124 4.0 8.0 0.00 0.12 0.00 45 1014.5
20260507205906 73 271 2.0 3.0 0.00 0.13 0.00 44 1014.4
20260507205406 73 188 2.0 3.0 0.00 0.13 0.00 44 1014.4
20260507204905 73 185 2.0 5.0 0.00 0.13 0.00 45 1014.4
20260507203905 73 195 3.0 5.0 0.00 0.13 0.00 45 1014.3
20260507203405 73 189 3.0 3.0 0.00 0.13 0.00 44 1014.5
20260507202905 73 231 3.0 5.0 0.00 0.13 0.00 45 1014.7
20260507202405 73 202 2.0 5.0 0.00 0.13 0.00 45 1014.8
20260507201904 73 191 2.0 5.0 0.00 0.13 0.00 45 1014.8
20260507201405 73 233 3.0 7.0 0.00 0.13 0.00 46 1014.9
20260507200905 73 170 5.0 8.0 0.00 0.13 0.00 45 1015.0
20260507200405 73 193 5.0 9.0 0.00 0.13 0.00 46 1015.1
20260507195905 73 130 3.0 8.0 0.00 0.13 0.00 45 1015.1
20260507195405 72 6 1.0 8.0 0.00 0.13 0.00 44 1015.2
20260507194905 72 311 3.0 6.0 0.00 0.13 0.00 44 1015.2
20260507194407 72 28 3.0 6.0 0.00 0.13 0.00 46 1015.4
20260507193905 72 24 2.0 7.0 0.00 0.13 0.00 45 1015.2
20260507193405 71 79 3.0 7.0 0.00 0.13 0.00 43 1015.5
20260507192905 72 331 4.0 8.0 0.00 0.13 0.00 43 1015.6
20260507192404 71 295 5.0 9.0 0.00 0.13 0.00 46 1015.7
20260507191905 71 356 4.0 8.0 0.00 0.13 0.00 45 1015.7
20260507190905 71 107 2.0 7.0 0.00 0.13 0.00 45 1015.8
20260507190405 70 297 4.0 8.0 0.00 0.13 0.00 45 1015.7
20260507185905 70 36 2.0 6.0 0.00 0.13 0.00 46 1015.8
20260507185405 70 314 6.0 14.0 0.00 0.13 0.00 44 1015.9
20260507184905 70 311 7.0 12.0 0.00 0.13 0.00 46 1015.8
20260507184405 70 339 7.0 16.0 0.00 0.13 0.00 46 1015.7
20260507183905 70 356 3.0 7.0 0.00 0.13 0.00 46 1015.7
20260507182905 69 31 5.0 9.0 0.00 0.13 0.00 46 1016.0
20260507182405 69 34 5.0 10.0 0.00 0.13 0.00 47 1016.1
20260507181905 68 275 3.0 8.0 0.00 0.13 0.00 49 1016.1
20260507181408 68 316 4.0 12.0 0.00 0.13 0.00 50 1016.2
20260507180904 68 306 3.0 12.0 0.00 0.13 0.00 50 1016.3
20260507180405 68 324 3.0 7.0 0.00 0.13 0.00 49 1016.5
20260507175905 67 301 4.0 10.0 0.00 0.13 0.00 50 1016.6
20260507175405 67 304 5.0 10.0 0.00 0.13 0.00 49 1016.5
20260507174904 67 286 4.0 9.0 0.00 0.13 0.00 49 1016.6
20260507174405 67 268 6.0 12.0 0.00 0.13 0.00 49 1016.6
20260507173905 67 300 6.0 12.0 0.00 0.13 0.00 48 1016.7
20260507173405 67 330 4.0 9.0 0.00 0.13 0.00 48 1016.7
20260507172404 67 23 3.0 9.0 0.00 0.13 0.00 48 1017.0